Weather reports worldwide

Advertisment
Huelva, Spain (8383): temperature & dewpoint: 06.12.2019 11:00:00 - 12.12.2019 11:00:00 (CET)Huelva, Spain (8383): wind speed: 06.12.2019 11:00:00 - 12.12.2019 11:00:00 (CET)Huelva, Spain (8383): wind direction: 06.12.2019 11:00:00 - 12.12.2019 11:00:00 (CET)Huelva, Spain (8383): reduced air pressure: 06.12.2019 11:00:00 - 12.12.2019 11:00:00 (CET)Huelva, Spain (8383): visibility: 06.12.2019 11:00:00 - 12.12.2019 11:00:00 (CET)Huelva, Spain (8383): precipitation: 06.12.2019 11:00:00 - 12.12.2019 11:00:00 (CET)
Date & Time tt [°C] td [°C] ff [km/h] ff [kn] dd ppp [hPa] vv [km] rr [mm]
12.12.2019 11:00:00 11,8 7,5 11 6 WNW 1030,1 19 0,0
12.12.2019 10:00:00 9,3 6,4 8 4 WSW 1028,5 6 -
12.12.2019 09:00:00 6,5 4,3 0 0 N 1029,3 13 0,0
12.12.2019 08:00:00 7,5 5,1 2 1 WNW 1028,7 16 0,0
12.12.2019 07:00:00 7,0 4,8 9 5 WNW 1028,7 12 -
12.12.2019 06:00:00 6,6 4,1 8 4 WNW 1028,6 20 0,0
12.12.2019 05:00:00 6,2 3,7 4 2 SSW 1029,0 20 0,0
12.12.2019 04:00:00 7,7 4,3 15 8 N 1029,2 20 -
12.12.2019 03:00:00 7,7 4,1 5 3 N 1029,6 20 0,0
12.12.2019 02:00:00 7,7 3,9 16 9 WNW 1029,6 20 0,0
12.12.2019 01:00:00 8,5 3,7 9 5 NW 1029,8 20 -
12.12.2019 00:00:00 9,6 3,6 9 5 NW 1029,9 20 0,0
11.12.2019 23:00:00 10,8 3,6 15 8 N 1029,9 20 0,0
11.12.2019 22:00:00 11,2 3,7 16 9 N 1029,6 20 -
11.12.2019 21:00:00 11,2 3,9 11 6 WNW 1029,4 20 0,0
11.12.2019 20:00:00 12,1 5,0 9 5 WNW 1029,0 20 0,0
11.12.2019 19:00:00 13,3 5,4 9 5 WNW 1028,2 20 -
11.12.2019 18:00:00 15,6 5,2 9 5 N 1027,4 20 0,0
11.12.2019 17:00:00 16,7 5,3 21 11 N 1026,8 20 0,0
11.12.2019 16:00:00 17,6 6,8 15 8 WNW 1026,4 20 -
11.12.2019 15:00:00 16,8 9,0 16 9 NW 1026,4 20 0,0
11.12.2019 14:00:00 15,9 11,3 24 13 WNW 1026,7 20 0,0
11.12.2019 13:00:00 15,2 12,0 13 7 NW 1027,3 15 -
11.12.2019 12:00:00 15,2 11,0 16 9 WNW 1028,0 20 0,0
11.12.2019 11:00:00 11,5 8,9 8 4 WNW 1028,2 15 0,0
11.12.2019 10:00:00 8,4 7,3 4 2 W 1027,8 7 -
11.12.2019 09:00:00 4,5 3,8 2 1 NNE 1027,5 13 0,0
11.12.2019 08:00:00 4,7 3,8 4 2 NNE 1026,8 13 0,0
11.12.2019 07:00:00 5,7 4,5 2 1 NW 1026,0 15 -
11.12.2019 06:00:00 7,8 6,4 8 4 N 1025,8 19 0,0
11.12.2019 05:00:00 8,4 6,4 5 3 NNE 1025,9 20 0,0
11.12.2019 04:00:00 8,8 6,2 9 5 NNE 1026,0 20 -
11.12.2019 03:00:00 9,0 7,0 8 4 NNE 1026,0 20 0,0
11.12.2019 02:00:00 9,5 6,6 4 2 NE 1026,2 20 0,0
11.12.2019 01:00:00 10,0 7,1 8 4 WNW 1026,4 20 -
11.12.2019 00:00:00 10,5 7,6 8 4 N 1026,7 20 0,0
10.12.2019 23:00:00 11,4 7,9 4 2 NW 1026,8 20 0,0
10.12.2019 22:00:00 12,6 8,1 11 6 NW 1026,5 20 -
10.12.2019 21:00:00 13,3 8,4 8 4 NW 1026,5 20 0,0
10.12.2019 20:00:00 13,3 9,0 8 4 WSW 1026,5 20 0,0
10.12.2019 19:00:00 13,9 8,3 4 2 SSW 1026,4 20 -
10.12.2019 18:00:00 16,9 7,8 11 6 W 1026,2 20 0,0
10.12.2019 17:00:00 19,3 9,2 9 5 SW 1026,3 20 0,0
10.12.2019 16:00:00 20,4 7,4 5 3 SW 1026,3 20 -
10.12.2019 15:00:00 20,0 6,3 5 3 WNW 1026,6 20 0,0
10.12.2019 14:00:00 19,1 6,2 4 2 NNW 1027,8 20 0,0
10.12.2019 13:00:00 17,2 6,1 4 2 NW 1028,7 14 -
10.12.2019 12:00:00 14,8 5,6 4 2 NW 1029,5 20 0,0
10.12.2019 11:00:00 10,6 5,6 5 3 N 1029,9 20 0,0
10.12.2019 10:00:00 8,1 5,0 5 3 NNE 1029,5 12 -
10.12.2019 09:00:00 5,4 4,5 4 2 N 1029,2 18 0,0
10.12.2019 08:00:00 5,4 4,5 8 4 NE 1028,7 14 0,0
10.12.2019 07:00:00 6,0 5,1 5 3 N 1028,7 16 -
10.12.2019 06:00:00 6,5 5,6 4 2 NNE 1028,9 17 0,0
10.12.2019 05:00:00 7,4 6,8 5 3 N 1028,9 12 0,0
10.12.2019 04:00:00 8,0 7,2 5 3 NNE 1029,2 11 -
10.12.2019 03:00:00 8,3 7,4 4 2 NNE 1029,1 9 0,0
10.12.2019 02:00:00 9,3 7,4 4 2 N 1029,3 20 0,0
10.12.2019 01:00:00 11,4 9,3 9 5 NNW 1029,4 20 -
10.12.2019 00:00:00 11,5 9,2 5 3 NNE 1029,5 20 0,0
09.12.2019 23:00:00 12,1 9,7 9 5 N 1030,0 20 0,0
09.12.2019 22:00:00 13,4 9,4 5 3 N 1029,6 20 -
09.12.2019 21:00:00 14,2 9,6 4 2 WNW 1029,5 20 0,0
09.12.2019 20:00:00 14,7 11,1 5 3 WNW 1029,5 20 0,0
09.12.2019 19:00:00 15,7 11,1 5 3 WSW 1028,7 20 -
09.12.2019 18:00:00 18,5 12,5 5 3 SSW 1028,6 20 0,0
09.12.2019 17:00:00 21,0 11,9 8 4 WSW 1028,7 20 0,0
09.12.2019 16:00:00 21,0 12,2 5 3 SSW 1028,5 19 -
09.12.2019 15:00:00 20,4 12,9 5 3 ENE 1028,9 20 0,0
09.12.2019 14:00:00 18,9 12,4 4 2 WNW 1029,5 20 0,0
09.12.2019 13:00:00 18,6 13,9 4 2 WNW 1030,2 20 -
09.12.2019 12:00:00 17,8 14,3 4 2 WNW 1030,9 20 0,0
09.12.2019 11:00:00 16,4 14,4 5 3 N 1030,7 20 0,0
09.12.2019 10:00:00 15,5 14,4 4 2 WNW 1030,2 14 -
09.12.2019 09:00:00 14,8 13,8 4 2 W 1029,8 10 0,0
09.12.2019 08:00:00 15,0 14,0 4 2 NW 1029,4 13 0,0
09.12.2019 07:00:00 14,6 13,5 4 2 WNW 1028,6 11 -
09.12.2019 06:00:00 14,7 13,6 5 3 WNW 1028,2 10 0,0
09.12.2019 05:00:00 14,7 13,6 9 5 W 1028,2 11 0,0
09.12.2019 04:00:00 14,3 12,8 8 4 NW 1028,4 15 -
09.12.2019 03:00:00 14,6 13,0 8 4 WNW 1028,3 18 0,0
09.12.2019 02:00:00 13,9 12,8 8 4 NW 1028,4 17 0,0
09.12.2019 01:00:00 12,1 10,5 2 1 SW 1028,5 14 -
09.12.2019 00:00:00 12,3 10,9 2 1 SSW 1028,6 14 0,0
08.12.2019 23:00:00 13,6 11,5 5 3 WNW 1028,1 20 0,0
08.12.2019 22:00:00 14,1 11,3 8 4 WNW 1028,1 20 -
08.12.2019 21:00:00 14,5 11,1 4 2 WSW 1027,9 20 0,0
08.12.2019 20:00:00 15,0 11,2 9 5 W 1027,6 20 0,0
08.12.2019 19:00:00 15,2 10,6 13 7 W 1027,4 20 -
08.12.2019 18:00:00 15,5 10,0 15 8 WSW 1026,8 20 0,0
08.12.2019 17:00:00 17,1 9,8 15 8 WSW 1026,6 20 0,0
08.12.2019 16:00:00 19,2 9,4 11 6 SW 1026,3 13 -
08.12.2019 15:00:00 19,5 9,7 13 7 SSW 1026,3 17 0,0
08.12.2019 14:00:00 18,6 9,1 8 4 SSE 1026,8 20 0,0
08.12.2019 13:00:00 16,7 8,9 4 2 NNW 1027,6 20 -
08.12.2019 12:00:00 14,4 8,6 5 3 NE 1028,2 20 0,0
08.12.2019 11:00:00 11,4 7,7 4 2 NNE 1028,2 20 0,0
08.12.2019 10:00:00 8,4 6,2 5 3 ENE 1027,9 20 -
08.12.2019 09:00:00 5,9 5,2 5 3 NNE 1027,5 15 0,0
08.12.2019 08:00:00 6,4 5,5 5 3 NE 1026,8 17 0,0
08.12.2019 07:00:00 7,1 6,0 5 3 NNE 1026,2 20 -
08.12.2019 06:00:00 7,1 5,4 4 2 NNE 1026,0 20 0,0
08.12.2019 05:00:00 7,8 6,4 8 4 N 1025,8 20 0,0
08.12.2019 04:00:00 8,9 7,2 8 4 NNW 1025,8 20 -
08.12.2019 03:00:00 8,7 6,8 8 4 N 1025,8 20 0,0
08.12.2019 02:00:00 9,7 6,8 5 3 NNE 1025,8 20 0,0
08.12.2019 01:00:00 10,5 7,4 4 2 WNW 1026,1 20 -
08.12.2019 00:00:00 10,6 7,7 8 4 WNW 1026,2 20 0,0
07.12.2019 23:00:00 11,7 7,2 5 3 WNW 1025,8 20 0,0
07.12.2019 22:00:00 12,4 7,7 8 4 WNW 1025,3 20 -
07.12.2019 21:00:00 13,1 8,0 11 6 WNW 1025,1 20 0,0
07.12.2019 20:00:00 13,9 8,1 8 4 WNW 1024,7 20 0,0
07.12.2019 19:00:00 15,1 7,9 8 4 W 1024,0 20 -
07.12.2019 18:00:00 18,4 8,1 5 3 WNW 1023,5 20 0,0
07.12.2019 17:00:00 20,3 8,6 11 6 NW 1023,0 20 0,0
07.12.2019 16:00:00 20,9 8,2 8 4 WNW 1022,6 20 -
07.12.2019 15:00:00 20,0 8,6 4 2 ENE 1022,8 20 0,0
07.12.2019 14:00:00 19,2 8,8 4 2 E 1023,2 20 0,0
07.12.2019 13:00:00 17,4 8,5 8 4 NE 1024,1 20 -
07.12.2019 12:00:00 15,5 8,2 8 4 NE 1024,6 20 0,0
07.12.2019 11:00:00 12,0 7,9 5 3 NNW 1024,6 20 0,0
07.12.2019 10:00:00 9,6 6,7 5 3 N 1024,2 20 -
07.12.2019 09:00:00 7,2 5,5 4 2 N 1023,7 20 0,0
07.12.2019 08:00:00 7,5 6,0 9 5 NNW 1023,2 20 0,0
07.12.2019 07:00:00 6,8 5,1 4 2 NE 1022,5 20 -
07.12.2019 06:00:00 8,4 6,4 5 3 N 1022,1 20 0,0
07.12.2019 05:00:00 7,8 5,9 8 4 N 1022,0 18 0,0
07.12.2019 04:00:00 7,2 5,3 8 4 NE 1022,0 20 -
07.12.2019 03:00:00 10,2 7,3 8 4 NNW 1021,9 20 0,0
07.12.2019 02:00:00 9,4 6,8 0 0 N 1021,9 20 0,0
07.12.2019 01:00:00 9,4 6,3 4 2 W 1022,2 20 -
07.12.2019 00:00:00 11,4 6,7 4 2 NNE 1021,7 20 0,0
06.12.2019 23:00:00 11,3 6,4 2 1 N 1021,2 20 0,0
06.12.2019 22:00:00 12,2 6,7 8 4 NE 1020,8 20 -
06.12.2019 21:00:00 13,8 6,4 5 3 NNE 1020,4 20 0,0
06.12.2019 20:00:00 15,5 6,2 8 4 N 1020,0 20 0,0
06.12.2019 19:00:00 16,7 6,8 4 2 ESE 1019,4 20 -
06.12.2019 18:00:00 18,6 7,4 2 1 E 1018,9 20 0,0
06.12.2019 17:00:00 19,9 6,2 9 5 E 1018,7 20 0,0
06.12.2019 16:00:00 20,3 6,2 13 7 E 1018,6 20 -
06.12.2019 15:00:00 20,1 7,1 11 6 E 1018,7 20 0,0
06.12.2019 14:00:00 19,2 6,6 15 8 E 1019,3 20 0,0
06.12.2019 13:00:00 18,3 7,1 15 8 ENE 1019,9 20 -
06.12.2019 12:00:00 17,3 7,6 13 7 ENE 1020,2 20 0,0
06.12.2019 11:00:00 13,4 7,8 5 3 N 1020,5 20 0,0

tt = temperature
td = dewpoint
ff = wind speed
dd = wind direction
ppp = reduced air pressure
vv = visibility
rr = precipitation

Next stations